Simultaneous Nadir Overpasses (SNOs) Predictions

Prediction of SNOs between FY3D and AQUA Satellite Orbit:

Table of predicted SNOs for the next 14.0 days since TLE Epoch: 12/11/2021
Index Date (FY3D) Time (FY3D) Lat,Lon (FY3D) SZA (FY3D ) Date (AQUA) Time (AQUA) Lat,Lon (AQUA) SZA (AQUA ) Distance(km) Time Diff (sec)
1 12/11/2021 19:55:56 72.22,-121.83 95.19 12/11/2021 19:56:35 72.21,-121.79 95.18 1.58 39
2 12/11/2021 20:45:49 -69.54, 50.02 87.48 12/11/2021 20:45:11 -69.54, 50.03 87.49 0.45 38
3 12/14/2021 11:23:05 -72.25,-173.66 84.61 12/14/2021 11:23:39 -72.24,-173.60 84.62 2.03 34
4 12/14/2021 12:13:04 69.76, -2.09 92.91 12/14/2021 12:12:21 69.76, -2.05 92.90 2.02 43
5 12/17/2021 02:50:05 71.67, 135.67 94.93 12/17/2021 02:50:35 71.68, 135.62 94.94 2.00 30
6 12/17/2021 03:40:11 -69.64, -53.68 87.10 12/17/2021 03:39:23 -69.64, -53.64 87.11 1.78 48
7 12/19/2021 18:17:24 -72.15, 82.99 84.52 12/19/2021 18:17:48 -72.14, 83.04 84.53 2.16 24
8 12/19/2021 19:07:07 68.83,-104.30 92.17 12/19/2021 19:06:15 68.84,-104.36 92.17 2.42 52
9 12/22/2021 09:44:22 71.49, 32.45 94.83 12/22/2021 09:44:42 71.50, 32.39 94.83 2.53 20
10 12/22/2021 10:34:25 -69.28,-156.71 87.38 12/22/2021 10:33:27 -69.28,-156.69 87.39 0.90 58
11 12/25/2021 01:11:35 -71.71, -19.72 85.00 12/25/2021 01:11:49 -71.71, -19.72 85.00 0.06 14



Historial Predications of SNOs between FY3D and AQUA
